Date String (YYYY-MM-DD hh:mm:ss) UTC,Instrument flags,Ambient pressure (hPa),Sample flow (lpm),Bypass flow (lpm),Sample temperature (°C),Ambient temperature (°C),ASC tube jacket temperature (°C),LED temperature (°C),Box temperature (°C),Sample RH (%),Span deviation,Mass concentration (μg/m³),Mass concentration (μg/m³),Mass concentration (μg/m³)
DateTimeUTC,F1_M11,P_M11,Q1_M11,Q2_M11,T1_M11,T2_M11,T3_M11,T4_M11,T5_M11,U1_M11,ZSPAN_M11,X0_M11,X2_M11,X1_M11
2021-11-17 15:00:00,,0831.3,5.01,0.00,22.7,21.8,00.0,31.7,24.4,13.7,0000.0,0013.64,0004.48,0002.81
2021-11-17 15:01:00,,0831.3,4.99,0.00,22.6,21.8,00.0,31.7,24.3,13.7,0000.0,0013.80,0004.53,0002.83
2021-11-17 15:02:00,,0831.3,5.01,0.00,22.6,21.8,00.0,31.7,24.3,13.8,0000.0,0013.88,0004.53,0002.84
2021-11-17 15:03:00,,0831.4,4.99,0.00,22.6,21.8,00.0,31.7,24.3,13.8,0000.0,0014.13,0004.52,0002.86
2021-11-17 15:04:00,,0831.4,4.99,0.00,22.6,21.8,00.0,31.6,24.3,13.8,0000.0,0014.22,0004.51,0002.86
2021-11-17 15:05:00,,0831.4,5.00,0.00,22.5,21.7,00.0,31.6,24.3,13.9,0000.0,0013.97,0004.47,0002.85
2021-11-17 15:06:00,,0831.5,5.00,0.00,22.5,21.7,00.0,31.6,24.2,14.0,0000.0,0014.14,0004.42,0002.83
2021-11-17 15:07:00,,0831.5,5.00,0.00,22.5,21.7,00.0,31.6,24.2,14.0,0000.0,0014.07,0004.39,0002.82
2021-11-17 15:08:00,,0831.6,5.00,0.00,22.5,21.7,00.0,31.6,24.3,14.0,0000.0,0013.18,0004.38,0002.82
2021-11-17 15:09:00,,0831.6,5.00,0.00,22.5,21.7,00.0,31.6,24.2,14.1,0000.0,0013.53,0004.40,0002.83
2021-11-17 15:10:00,,0831.6,5.01,0.00,22.5,21.7,00.0,31.6,24.3,14.1,0000.0,0013.15,0004.41,0002.85
2021-11-17 15:11:00,,0831.6,4.99,0.00,22.5,21.7,00.0,31.6,24.3,14.0,0000.0,0012.04,0004.37,0002.84
2021-11-17 15:12:00,,0831.7,5.00,0.00,22.5,21.7,00.0,31.6,24.2,14.1,0000.0,0011.69,0004.33,0002.83
2021-11-17 15:13:00,,0831.7,5.00,0.00,22.5,21.7,00.0,31.5,24.2,14.1,0000.0,0011.54,0004.39,0002.86
2021-11-17 15:14:00,,0831.7,4.99,0.00,22.5,21.7,00.0,31.5,24.2,14.2,0000.0,0011.51,0004.41,0002.89
2021-11-17 15:15:00,,0831.8,5.00,0.00,22.4,21.7,00.0,31.5,24.2,14.1,0000.0,0011.97,0004.43,0002.91
2021-11-17 15:16:00,,0831.8,5.00,0.00,22.4,21.6,00.0,31.5,24.2,14.0,0000.0,0012.06,0004.41,0002.92
2021-11-17 15:17:00,,0831.7,4.99,0.00,22.4,21.6,00.0,31.5,24.1,14.0,0000.0,0011.81,0004.42,0002.96
2021-11-17 15:18:00,,0831.8,5.00,0.00,22.4,21.6,00.0,31.5,24.1,14.0,0000.0,0011.70,0004.42,0002.98
2021-11-17 15:19:00,,0831.7,4.99,0.00,22.3,21.6,00.0,31.5,24.1,14.0,0000.0,0011.87,0004.45,0002.99
2021-11-17 15:20:00,,0831.9,5.01,0.00,22.3,21.6,00.0,31.5,24.1,14.0,0000.0,0011.35,0004.47,0003.01
2021-11-17 15:21:00,,0831.7,4.99,0.00,22.3,21.5,00.0,31.4,24.0,14.0,0000.0,0011.17,0004.55,0003.04
2021-11-17 15:22:00,,0831.7,5.00,0.00,22.3,21.5,00.0,31.4,24.0,14.1,0000.0,0011.07,0004.54,0003.05
2021-11-17 15:23:00,,0831.7,5.00,0.00,22.3,21.5,00.0,31.4,24.0,14.2,0000.0,0011.91,0004.53,0003.08
2021-11-17 15:24:00,,0831.8,5.01,0.00,22.2,21.4,00.0,31.4,24.0,14.2,0000.0,0012.03,0004.45,0003.06
2021-11-17 15:25:00,,0831.7,5.00,0.00,22.2,21.4,00.0,31.4,24.0,14.2,0000.0,0012.02,0004.46,0003.04
2021-11-17 15:26:00,,0831.7,5.01,0.00,22.2,21.5,00.0,31.4,24.0,14.2,0000.0,0011.32,0004.41,0003.03
2021-11-17 15:27:00,,0831.7,5.00,0.00,22.2,21.5,00.0,31.4,24.0,14.2,0000.0,0011.23,0004.41,0003.04
2021-11-17 15:28:00,,0831.8,5.00,0.00,22.2,21.5,00.0,31.3,24.0,14.2,0000.0,0011.34,0004.43,0003.04
2021-11-17 15:29:00,,0832.0,4.99,0.00,22.2,21.5,00.0,31.3,24.0,14.2,0000.0,0011.33,0004.43,0003.04
2021-11-17 15:30:00,,0831.9,5.01,0.00,22.2,21.4,00.0,31.3,24.0,14.2,0000.0,0011.38,0004.45,0003.06
2021-11-17 15:31:00,,0831.9,5.00,0.00,22.2,21.5,00.0,31.3,23.9,14.1,0000.0,0011.36,0004.45,0003.07
2021-11-17 15:32:00,,0832.0,5.00,0.00,22.2,21.4,00.0,31.3,24.0,14.1,0000.0,0011.24,0004.41,0003.07
2021-11-17 15:33:00,,0832.1,4.99,0.00,22.2,21.4,00.0,31.3,24.0,14.2,0000.0,0011.70,0004.43,0003.10
2021-11-17 15:34:00,,0832.1,4.99,0.00,22.2,21.4,00.0,31.3,24.0,14.3,0000.0,0011.54,0004.45,0003.11
2021-11-17 15:35:00,,0832.1,5.01,0.00,22.2,21.5,00.0,31.3,24.0,14.2,0000.0,0011.18,0004.45,0003.10
2021-11-17 15:36:00,,0832.1,5.00,0.00,22.2,21.5,00.0,31.3,24.0,14.3,0000.0,0011.04,0004.45,0003.12
2021-11-17 15:37:00,,0832.1,5.00,0.00,22.2,21.5,00.0,31.3,24.0,14.3,0000.0,0011.63,0004.43,0003.13
2021-11-17 15:38:00,,0832.1,5.01,0.00,22.2,21.4,00.0,31.3,24.0,14.1,0000.0,0011.72,0004.46,0003.13
2021-11-17 15:39:00,,0832.2,4.99,0.00,22.2,21.4,00.0,31.3,23.9,14.0,0000.0,0011.67,0004.49,0003.13
2021-11-17 15:40:00,,0832.1,5.00,0.00,22.2,21.4,00.0,31.3,23.9,14.1,0000.0,0011.79,0004.53,0003.14
2021-11-17 15:41:00,,0832.1,5.00,0.00,22.2,21.4,00.0,31.2,23.9,14.2,0000.0,0012.67,0004.53,0003.14
2021-11-17 15:42:00,,0832.0,5.00,0.00,22.1,21.4,00.0,31.2,23.9,14.1,0000.0,0013.03,0004.54,0003.14
2021-11-17 15:43:00,,0832.0,4.99,0.00,22.1,21.4,00.0,31.2,23.9,14.1,0000.0,0013.22,0004.56,0003.14
2021-11-17 15:44:00,,0832.1,4.99,0.00,22.2,21.6,00.0,31.2,24.0,14.1,0000.0,0013.38,0004.59,0003.13
2021-11-17 15:45:00,,0832.1,5.00,0.00,22.3,22.4,00.0,31.3,24.2,14.0,0000.0,0013.75,0004.62,0003.12
2021-11-17 15:46:00,,0832.1,5.00,0.00,22.4,23.1,00.0,31.3,24.4,13.9,0000.0,0014.11,0004.59,0003.12
2021-11-17 15:47:00,,0832.0,5.00,0.00,22.5,23.1,00.0,31.3,24.5,13.8,0000.0,0013.92,0004.55,0003.10
2021-11-17 15:48:00,,0832.0,4.99,0.00,22.5,22.8,00.0,31.4,24.5,13.8,0000.0,0013.56,0004.61,0003.08
2021-11-17 15:49:00,,0832.1,5.00,0.00,22.5,22.6,00.0,31.4,24.4,13.7,0000.0,0013.85,0004.63,0003.06
2021-11-17 15:50:00,,0832.1,5.01,0.00,22.5,22.4,00.0,31.4,24.3,13.6,0000.0,0014.28,0004.60,0003.02
2021-11-17 15:51:00,,0832.1,5.00,0.00,22.5,22.3,00.0,31.4,24.3,13.6,0000.0,0014.21,0004.56,0002.97
2021-11-17 15:52:00,,0832.0,5.00,0.00,22.5,22.1,00.0,31.4,24.3,13.5,0000.0,0013.55,0004.51,0002.92
2021-11-17 15:53:00,,0832.1,5.00,0.00,22.4,22.0,00.0,31.4,24.2,13.6,0000.0,0013.40,0004.45,0002.88
2021-11-17 15:54:00,,0832.1,5.00,0.00,22.4,22.0,00.0,31.4,24.2,13.7,0000.0,0013.36,0004.43,0002.84
2021-11-17 15:55:00,,0832.1,5.00,0.00,22.4,21.9,00.0,31.4,24.2,13.7,0000.0,0012.87,0004.39,0002.83
2021-11-17 15:56:00,,0832.1,5.01,0.00,22.4,21.9,00.0,31.4,24.2,13.9,0000.0,0011.96,0004.39,0002.82
2021-11-17 15:57:00,,0832.0,4.99,0.00,22.4,21.8,00.0,31.4,24.2,14.0,0000.0,0011.58,0004.45,0002.84
2021-11-17 15:58:00,,0832.0,5.01,0.00,22.4,21.8,00.0,31.4,24.2,13.9,0000.0,0011.93,0004.47,0002.82
2021-11-17 15:59:00,,0832.1,4.99,0.00,22.4,21.7,00.0,31.4,24.1,13.8,0000.0,0012.33,0004.45,0002.81
